[Iaude] MPEC Y07: 2023 XX14 [a=1.54,e=0.28,i=9.4,H=22.6]

mpec at marsden.cfa.harvard.edu mpec at marsden.cfa.harvard.edu
Sat Dec 16 08:28:36 EST 2023


M.P.E.C. 2023-Y07                             Issued 2023 December 16, 13:26 UT

     The Minor Planet Electronic Circulars contain information on unusual
         minor planets, routine data on comets and natural satellites,
         and occasional editorial announcements.  They are published
    on behalf of Division F of the International Astronomical Union by the
          Minor Planet Center, Smithsonian Astrophysical Observatory,
                          Cambridge, MA 02138, U.S.A.
			  
             Prepared using the Tamkin Foundation Computer Network

                              MPC at CFA.HARVARD.EDU
            URL https://www.minorplanetcenter.net/    ISSN 1523-6714

                                   2023 XX14                                    


Observations:
     K23X14X*1C2023 12 13.20072203 19 50.210+32 59 20.04         20.09GVEY007G96
     K23X14X 1C2023 12 13.21213003 19 51.398+32 58 50.59         20.62GVEY007G96
     K23X14X 1C2023 12 13.21778003 19 51.978+32 58 35.80         20.79GVEY007G96
     K23X14X !C2023 12 13.27159 03 19 57.64 +32 56 18.7          20.7 RVEY007673
     K23X14X !C2023 12 13.27845 03 19 58.35 +32 56 00.6                VEY007673
     K23X14X mC2023 12 13.29077003 19 59.300+32 55 30.07         21.28GVEY007I52
     K23X14X mC2023 12 13.29141403 19 59.365+32 55 28.49         21.09GVEY007I52
     K23X14X mC2023 12 13.29310403 19 59.549+32 55 23.99         21.37GVEY007I52
     K23X14X mC2023 12 13.29477203 19 59.704+32 55 20.39         21.43GVEY007I52
     K23X14X KC2023 12 14.07633603 21 31.291+32 22 41.45         21.04GVEY007I52
     K23X14X KC2023 12 14.07804503 21 31.424+32 22 37.45         21.36GVEY007I52
     K23X14X KC2023 12 14.07999903 21 31.658+32 22 32.34         21.49GVEY007I52
     K23X14X KC2023 12 14.08169603 21 31.817+32 22 28.74         21.29GVEY007I52
     K23X14X 1C2023 12 14.22115303 21 45.900+32 16 49.37         21.13GVEY007G96
     K23X14X 1C2023 12 14.22676703 21 46.436+32 16 35.58         20.61GVEY007G96
     K23X14X 1C2023 12 14.23238803 21 47.020+32 16 21.68         20.71GVEY007G96
     K23X14X 1C2023 12 14.23800903 21 47.574+32 16 07.57         20.95GVEY007G96
     K23X14X KC2023 12 15.06363103 23 21.78 +31 42 28.2          21.4 GVEY007H21
     K23X14X KC2023 12 15.07061903 23 22.46 +31 42 11.5          21.6 GVEY007H21
     K23X14X KC2023 12 15.07499803 23 22.94 +31 42 01.4          21.5 GVEY007H21
     K23X14X  C2023 12 16.23299303 25 32.616+30 56 21.92         21.20wXEY007F51
     K23X14X  C2023 12 16.24769103 25 34.046+30 55 48.67         21.00wXEY007F51
     K23X14X  C2023 12 16.26057403 25 35.328+30 55 19.32         21.44wXEY007F51
     K23X14X  C2023 12 16.27614703 25 36.845+30 54 43.82         21.35wXEY007F51

Observer details:
673 Table Mountain Observatory, Wrightwood.  Observer J. Pittichova.  1.0-m
    f/15 reflector + CCD.
F51 Pan-STARRS 1, Haleakala.  Observers J. Herman, T. Lowe, P. Minguez, A.
    Schultz, I. Smith.  Measurers K. Chambers, T. de Boer, J. Fairlamb, H.
    Gao, M. Huber, C.-C. Lin, E. Magnier, Y. Ramanjooloo, R. Wainscoat, R.
    Weryk.  1.8-m Ritchey-Chretien + CCD.
G96 Mt. Lemmon Survey.  Observer J. K. Hogan.  Measurers E. C. Beshore, D.
    Fay, J. B. Fazekas, D. C. Fuls, A. R. Gibbs, A. D. Grauer, H. Groeller, J.
    K. Hogan, R. A. Kowalski, S. M. Larson, G. J. Leonard, D. Rankin, R. L.
    Seaman, F. C. Shelly, K. W. Wierzchos.  1.5-m reflector + 10K CCD.
H21 Astronomical Research Observatory, Westfield.  Observer R. Holmes.
    Measurers T. Linder, R. Holmes, L. Horn.  0.76-m f/3.0 astrograph + CCD.
I52 Steward Observatory, Mt. Lemmon Station.  Observer K. W. Wierzchos.
    Measurers E. C. Beshore, D. Fay, J. B. Fazekas, D. C. Fuls, A. R. Gibbs,
    A. D. Grauer, H. Groeller, J. K. Hogan, R. A. Kowalski, S. M. Larson, G.
    J. Leonard, D. Rankin, R. L. Seaman, F. C. Shelly, K. W. Wierzchos.  1.0-m
    prime focus + CCD.

Orbital elements:
2023 XX14                                                Earth MOID = 0.1928 AU
Epoch 2023 Sept. 13.0 TT = JDT 2460200.5                Veres                   
M 343.95437              (2000.0)            P               Q                  
n   0.51332143     Peri.  108.00250     +0.91401843     -0.37162512             
a   1.5448149      Node   274.06835     +0.28221934     +0.87056822             
e   0.2791508      Incl.    9.38641     +0.29141474     +0.32249921             
P   1.92           H   22.69          G   0.15           U   8                  
Residuals in seconds of arc
231213 G96  0.6-  0.8+    231213 I52  0.0   0.5+    231214 G96  0.2+  0.1-
231213 G96  0.0   0.2+    231214 I52  0.2+  0.1-    231215 H21  0.3-  0.2-
231213 G96  0.1+  0.4-    231214 I52  0.4-  0.0     231215 H21 (0.7-  0.3-)
231213 673  0.1+  0.1+    231214 I52  0.0   0.4-    231215 H21  0.2-  0.0
231213 673  0.4+  0.6-    231214 I52  0.2-  0.1+    231216 F51  0.4+  0.1-
231213 I52  0.1+  0.1-    231214 G96  0.1+  0.0     231216 F51  0.0   0.1+
231213 I52  0.1+  0.0     231214 G96  0.1-  0.1+    231216 F51  0.2+  0.1+
231213 I52  0.2+  0.2-    231214 G96  0.2+  0.1+    231216 F51  0.1+  0.3+

Ephemeris:
2023 XX14                a,e,i = 1.54, 0.28, 9                   q = 1.1136
Date    TT    R. A. (2000) Decl.     Delta      r    Elong.  Phase     V
2023 11 16    02 11 06.9 +55 21 19   0.1965  1.1481   140.8    33.0    20.8
...
2023 12 01    02 54 15.3 +42 39 44   0.2199  1.1843   151.6    23.3    20.9
...
2023 12 09    03 11 37.0 +36 05 25   0.2443  1.2077   152.9    21.8    21.1
...
2023 12 15    03 23 13.5 +31 45 10   0.2685  1.2268   151.4    22.6    21.4
2023 12 16    03 25 05.1 +31 05 27   0.2730  1.2301   151.0    22.8    21.4
2023 12 17    03 26 55.8 +30 26 50   0.2777  1.2335   150.5    23.1    21.5
...
2023 12 23    03 37 44.4 +26 58 23   0.3084  1.2541   147.2    25.1    21.8
...
2023 12 31    03 51 43.6 +23 19 39   0.3563  1.2829   142.0    28.2    22.2
...
2024 01 15    04 17 48.4 +18 58 34   0.4657  1.3402   131.9    33.1    23.1

M. P. C. Staff               (C) Copyright 2023 MPC           M.P.E.C. 2023-Y07





More information about the Iaude mailing list